When you browse on this site, cookies collect data to enhance your experience and personalize the content and advertising you see.
Visit our Privacy Policy to learn more. By continuing to use the site, you agree to this use of cookies and data.
  • In Hungary
  • List of Countries
  • For 7 days
  • Water Temperature
  • Satellite Maps
  • Weather Map
  • News
  • Weather Widgets
  • user-avatar
    Login

    Hourly Weather Kisii

    Today, 24 February, Sunday

    Time Temperature Precipitation Wind Pressure Humidity
    00:00 +18°C° 1 mm 1 mps 622 mmHg 93%
    01:00 +16°C° 1 mm 1 mps 622 mmHg 93%
    02:00 +16°C° 1 mm 1 mps 622 mmHg 94%
    03:00 +16°C° 0.2 mm 1 mps 622 mmHg 93%
    04:00 +16°C° 0.2 mm 1 mps 622 mmHg 93%
    05:00 +15°C° 0.2 mm 1 mps 622 mmHg 92%
    06:00 +18°C° 0 mm 1 mps 622 mmHg 88%
    07:00 +19°C° 0 mm 1 mps 623 mmHg 85%
    08:00 +20°C° 0 mm 1 mps 624 mmHg 81%
    09:00 +22°C° 0.2 mm 1 mps 624 mmHg 71%
    10:00 +25°C° 0.2 mm 1 mps 625 mmHg 61%
    11:00 +27°C° 0.2 mm 1 mps 626 mmHg 51%
    12:00 +26°C° 1 mm 1 mps 625 mmHg 56%
    13:00 +26°C° 1 mm 2 mps 624 mmHg 61%
    14:00 +25°C° 1 mm 2 mps 623 mmHg 66%
    15:00 +24°C° 1.5 mm 2 mps 623 mmHg 72%
    16:00 +23°C° 1.5 mm 2 mps 622 mmHg 78%
    17:00 +22°C° 1.5 mm 1 mps 622 mmHg 83%
    18:00 +20°C° 1.2 mm 1 mps 622 mmHg 86%
    19:00 +19°C° 1.2 mm 1 mps 622 mmHg 89%
    20:00 +18°C° 1.2 mm 1 mps 622 mmHg 92%
    21:00 +18°C° 0.2 mm 1 mps 622 mmHg 93%
    22:00 +16°C° 0.2 mm 1 mps 623 mmHg 93%
    23:00 +16°C° 0.2 mm 1 mps 623 mmHg 93%

    Tomorrow, 25 February, Monday

    Time Temperature Precipitation Wind Pressure Humidity
    00:00 +16°C° 0 mm 1 mps 622 mmHg 93%
    01:00 +16°C° 0 mm 1 mps 622 mmHg 93%
    02:00 +16°C° 0 mm 1 mps 622 mmHg 92%
    03:00 +16°C° 0 mm 1 mps 622 mmHg 92%
    04:00 +15°C° 0 mm 1 mps 622 mmHg 92%
    05:00 +15°C° 0 mm 1 mps 622 mmHg 92%
    06:00 +18°C° 0 mm 1 mps 623 mmHg 86%
    07:00 +20°C° 0 mm 1 mps 624 mmHg 80%
    08:00 +19°C° 0 mm 0 mps 624 mmHg 73%
    09:00 +24°C° 0 mm 1 mps 625 mmHg 62%
    10:00 +26°C° 0 mm 1 mps 626 mmHg 50%
    11:00 +29°C° 0 mm 1 mps 626 mmHg 39%
    12:00 +29°C° 0 mm 2 mps 625 mmHg 40%
    13:00 +28°C° 0 mm 2 mps 624 mmHg 41%
    14:00 +28°C° 0 mm 3 mps 623 mmHg 42%
    15:00 +26°C° 0.1 mm 2 mps 622 mmHg 51%
    16:00 +24°C° 0.1 mm 2 mps 622 mmHg 60%
    17:00 +23°C° 0.1 mm 2 mps 621 mmHg 70%
    18:00 +22°C° 2 mm 1 mps 621 mmHg 76%
    19:00 +21°C° 2 mm 1 mps 622 mmHg 82%
    20:00 +20°C° 2 mm 1 mps 622 mmHg 88%
    21:00 +20°C° 0.6 mm 1 mps 623 mmHg 88%
    22:00 +20°C° 0.6 mm 1 mps 623 mmHg 88%
    23:00 +19°C° 0.6 mm 1 mps 623 mmHg 88%

    Day after tomorrow, 26 February, Tuesday

    Time Temperature Precipitation Wind Pressure Humidity
    00:00 +19°C° 0.2 mm 1 mps 623 mmHg 88%
    01:00 +19°C° 0.2 mm 1 mps 623 mmHg 88%
    02:00 +19°C° 0.2 mm 1 mps 622 mmHg 88%
    03:00 +18°C° 0 mm 1 mps 622 mmHg 88%
    04:00 +18°C° 0 mm 1 mps 622 mmHg 89%
    05:00 +16°C° 0 mm 1 mps 622 mmHg 90%
    06:00 +18°C° 0 mm 1 mps 623 mmHg 82%
    07:00 +20°C° 0 mm 1 mps 623 mmHg 74%
    08:00 +21°C° 0 mm 1 mps 624 mmHg 67%
    09:00 +24°C° 0 mm 1 mps 625 mmHg 53%
    10:00 +27°C° 0 mm 2 mps 625 mmHg 40%
    11:00 +30°C° 0 mm 2 mps 626 mmHg 27%
    12:00 +30°C° 0 mm 2 mps 625 mmHg 26%
    13:00 +31°C° 0 mm 2 mps 624 mmHg 25%
    14:00 +31°C° 0 mm 2 mps 623 mmHg 23%
    15:00 +29°C° 0 mm 2 mps 623 mmHg 33%
    16:00 +27°C° 0 mm 2 mps 622 mmHg 43%
    17:00 +24°C° 0 mm 2 mps 621 mmHg 53%
    18:00 +23°C° 0 mm 2 mps 621 mmHg 60%
    19:00 +22°C° 0 mm 1 mps 622 mmHg 67%
    20:00 +21°C° 0 mm 1 mps 623 mmHg 73%
    21:00 +20°C° 0.2 mm 1 mps 623 mmHg 77%
    22:00 +20°C° 0.2 mm 1 mps 623 mmHg 80%
    23:00 +18°C° 0.2 mm 2 mps 623 mmHg 84%

    27 February, Wednesday

    Time Temperature Precipitation Wind Pressure Humidity
    00:00 +17°C° 0 mm 2 mps 622 mmHg 82%
    01:00 +18°C° 0 mm 1 mps 621 mmHg 81%
    02:00 +18°C° 0 mm 1 mps 621 mmHg 79%
    03:00 +16°C° 0 mm 1 mps 621 mmHg 77%
    04:00 +16°C° 0 mm 1 mps 621 mmHg 76%
    05:00 +15°C° 0 mm 2 mps 621 mmHg 74%
    06:00 +18°C° 0 mm 2 mps 622 mmHg 64%
    07:00 +20°C° 0 mm 2 mps 623 mmHg 54%
    08:00 +23°C° 0 mm 2 mps 624 mmHg 44%
    09:00 +26°C° 0 mm 1 mps 625 mmHg 38%
    10:00 +29°C° 0 mm 1 mps 626 mmHg 31%
    11:00 +32°C° 0 mm 1 mps 626 mmHg 25%
    12:00 +31°C° 0 mm 1 mps 625 mmHg 26%
    13:00 +31°C° 0 mm 2 mps 624 mmHg 27%
    14:00 +30°C° 0 mm 2 mps 623 mmHg 28%
    15:00 +28°C° 0 mm 2 mps 622 mmHg 36%
    16:00 +26°C° 0 mm 2 mps 621 mmHg 43%
    17:00 +24°C° 0 mm 2 mps 621 mmHg 51%
    18:00 +23°C° 0 mm 2 mps 621 mmHg 57%
    19:00 +22°C° 0 mm 1 mps 622 mmHg 64%
    20:00 +21°C° 0 mm 1 mps 622 mmHg 71%
    21:00 +21°C° 0 mm 1 mps 622 mmHg 71%
    22:00 +21°C° 0 mm 1 mps 622 mmHg 71%
    23:00 +19°C° 0 mm 2 mps 623 mmHg 70%

    28 February, Thursday

    Time Temperature Precipitation Wind Pressure Humidity
    00:00 +19°C° 0 mm 2 mps 622 mmHg 70%
    01:00 +18°C° 0 mm 2 mps 621 mmHg 69%
    02:00 +18°C° 0 mm 1 mps 621 mmHg 68%
    03:00 +18°C° 0 mm 1 mps 621 mmHg 67%
    04:00 +16°C° 0 mm 1 mps 621 mmHg 65%
    05:00 +16°C° 0 mm 1 mps 621 mmHg 64%
    06:00 +19°C° 0 mm 1 mps 623 mmHg 59%
    07:00 +22°C° 0 mm 1 mps 624 mmHg 53%
    08:00 +24°C° 0 mm 1 mps 625 mmHg 47%
    09:00 +26°C° 0 mm 1 mps 625 mmHg 43%
    10:00 +28°C° 0 mm 2 mps 625 mmHg 38%
    11:00 +30°C° 0 mm 2 mps 625 mmHg 34%
    12:00 +29°C° 0.1 mm 2 mps 624 mmHg 39%
    13:00 +28°C° 0.1 mm 2 mps 623 mmHg 45%
    14:00 +26°C° 0.1 mm 1 mps 622 mmHg 50%
    15:00 +25°C° 0.4 mm 1 mps 621 mmHg 56%
    16:00 +24°C° 0.4 mm 2 mps 621 mmHg 63%
    17:00 +23°C° 0.4 mm 2 mps 621 mmHg 69%
    18:00 +22°C° 0 mm 1 mps 621 mmHg 71%
    19:00 +21°C° 0 mm 1 mps 622 mmHg 72%
    20:00 +20°C° 0 mm 1 mps 622 mmHg 74%
    21:00 +20°C° 0 mm 1 mps 622 mmHg 72%
    22:00 +20°C° 0 mm 1 mps 622 mmHg 69%
    23:00 +20°C° 0 mm 1 mps 623 mmHg 67%

    1 March, Friday

    Time Temperature Precipitation Wind Pressure Humidity
    00:00 +20°C° 0 mm 1 mps 622 mmHg 69%
    01:00 +19°C° 0 mm 1 mps 622 mmHg 70%
    02:00 +18°C° 0 mm 1 mps 621 mmHg 72%
    03:00 +18°C° 0 mm 1 mps 621 mmHg 71%
    04:00 +18°C° 0 mm 1 mps 621 mmHg 70%
    05:00 +18°C° 0 mm 1 mps 622 mmHg 68%
    06:00 +20°C° 0 mm 1 mps 623 mmHg 62%
    07:00 +22°C° 0 mm 1 mps 624 mmHg 55%
    08:00 +25°C° 0 mm 1 mps 625 mmHg 49%
    09:00 +26°C° 0 mm 1 mps 625 mmHg 44%
    10:00 +28°C° 0 mm 2 mps 625 mmHg 39%
    11:00 +29°C° 0 mm 3 mps 625 mmHg 35%
    12:00 +29°C° 0 mm 3 mps 624 mmHg 36%
    13:00 +29°C° 0 mm 3 mps 624 mmHg 37%
    14:00 +29°C° 0 mm 3 mps 623 mmHg 37%
    15:00 +28°C° 0 mm 2 mps 622 mmHg 44%
    16:00 +26°C° 0 mm 2 mps 622 mmHg 50%
    17:00 +25°C° 0 mm 2 mps 622 mmHg 56%
    18:00 +24°C° 0 mm 1 mps 622 mmHg 61%
    19:00 +23°C° 0 mm 1 mps 622 mmHg 66%
    20:00 +20°C° 0 mm 0 mps 622 mmHg 72%
    21:00 +21°C° 0 mm 1 mps 622 mmHg 73%
    22:00 +21°C° 0 mm 1 mps 622 mmHg 74%
    23:00 +20°C° 0 mm 1 mps 622 mmHg 76%
    Show more